Time,TemperatureF,DewpointF,PressureIn,WindDirection,WindDirectionDegrees,WindSpeedMPH,WindSpeedGustMPH,Humidity,HourlyPrecipIn,Conditions,Clouds,dailyrainin,SolarRadiationWatts/m^2,SoftwareType,DateUTC
2013-02-17 00:01:00,33.0,9.0,-100.00,SSW,211,3.0,6.0,36,0.00,,,0.00,1.000000,,2013-02-17 07:01:00,
2013-02-17 00:11:00,33.0,9.0,-100.00,SSW,211,3.0,6.0,36,0.00,,,0.00,1.000000,,2013-02-17 07:11:00,
2013-02-17 00:21:00,33.0,9.0,-100.00,SSW,211,3.0,6.0,36,0.00,,,0.00,1.000000,,2013-02-17 07:21:00,
2013-02-17 00:31:00,33.0,9.0,-100.00,SSW,211,3.0,6.0,36,0.00,,,0.00,1.000000,,2013-02-17 07:31:00,
2013-02-17 01:01:00,34.0,8.0,-100.00,South,183,5.0,7.0,33,0.00,,,0.00,1.000000,,2013-02-17 08:01:00,
2013-02-17 01:11:00,34.0,8.0,-100.00,South,183,5.0,7.0,33,0.00,,,0.00,1.000000,,2013-02-17 08:11:00,
2013-02-17 01:21:00,34.0,8.0,-100.00,South,183,5.0,7.0,33,0.00,,,0.00,1.000000,,2013-02-17 08:21:00,
2013-02-17 01:31:00,34.0,8.0,-100.00,South,183,5.0,7.0,33,0.00,,,0.00,1.000000,,2013-02-17 08:31:00,
2013-02-17 02:01:00,34.0,6.0,-100.00,SSE,160,7.0,10.0,30,0.00,,,0.00,1.000000,,2013-02-17 09:01:00,
2013-02-17 02:11:00,34.0,6.0,-100.00,SSE,160,7.0,10.0,30,0.00,,,0.00,1.000000,,2013-02-17 09:11:00,
2013-02-17 02:21:00,34.0,6.0,-100.00,SSE,160,7.0,10.0,30,0.00,,,0.00,1.000000,,2013-02-17 09:21:00,
2013-02-17 02:31:00,34.0,6.0,-100.00,SSE,160,7.0,10.0,30,0.00,,,0.00,1.000000,,2013-02-17 09:31:00,
2013-02-17 03:01:00,34.0,3.0,-100.00,South,174,5.0,8.0,26,0.00,,,0.00,1.000000,,2013-02-17 10:01:00,
2013-02-17 03:11:00,34.0,3.0,-100.00,South,174,5.0,8.0,26,0.00,,,0.00,1.000000,,2013-02-17 10:11:00,
2013-02-17 03:21:00,34.0,3.0,-100.00,South,174,5.0,8.0,26,0.00,,,0.00,1.000000,,2013-02-17 10:21:00,
2013-02-17 03:31:00,34.0,3.0,-100.00,South,174,5.0,8.0,26,0.00,,,0.00,1.000000,,2013-02-17 10:31:00,
2013-02-17 04:01:00,32.0,4.0,-100.00,South,171,4.0,7.0,30,0.00,,,0.00,1.000000,,2013-02-17 11:01:00,
2013-02-17 04:11:00,32.0,4.0,-100.00,South,171,4.0,7.0,30,0.00,,,0.00,1.000000,,2013-02-17 11:11:00,
2013-02-17 04:21:00,32.0,4.0,-100.00,South,171,4.0,7.0,30,0.00,,,0.00,1.000000,,2013-02-17 11:21:00,
2013-02-17 04:32:00,32.0,4.0,-100.00,South,171,4.0,7.0,30,0.00,,,0.00,1.000000,,2013-02-17 11:32:00,
2013-02-17 05:03:00,28.0,7.0,-100.00,East,98,2.0,5.0,40,0.00,,,0.00,1.000000,,2013-02-17 12:03:00,
2013-02-17 05:11:00,28.0,7.0,-100.00,East,98,2.0,5.0,40,0.00,,,0.00,1.000000,,2013-02-17 12:11:00,
2013-02-17 05:22:00,28.0,7.0,-100.00,East,98,2.0,5.0,40,0.00,,,0.00,1.000000,,2013-02-17 12:22:00,
2013-02-17 05:31:00,28.0,7.0,-100.00,East,98,2.0,5.0,40,0.00,,,0.00,1.000000,,2013-02-17 12:31:00,
2013-02-17 06:02:00,26.0,7.0,-100.00,SSE,152,3.0,4.0,44,0.00,,,0.00,1.000000,,2013-02-17 13:02:00,
2013-02-17 06:11:00,26.0,7.0,-100.00,SSE,152,3.0,4.0,44,0.00,,,0.00,1.000000,,2013-02-17 13:11:00,
2013-02-17 06:21:00,26.0,7.0,-100.00,SSE,152,3.0,4.0,44,0.00,,,0.00,1.000000,,2013-02-17 13:21:00,
2013-02-17 06:32:00,26.0,7.0,-100.00,SSE,152,3.0,4.0,44,0.00,,,0.00,1.000000,,2013-02-17 13:32:00,
2013-02-17 07:01:00,33.0,4.0,-100.00,South,181,5.0,7.0,29,0.00,,,0.00,1.000000,,2013-02-17 14:01:00,
2013-02-17 08:01:00,31.0,7.0,-100.00,SW,221,4.0,6.0,35,0.00,,,0.00,10.000000,,2013-02-17 15:01:00,
2013-02-17 09:01:00,40.0,7.0,-100.00,SW,236,7.0,10.0,25,0.00,,,0.00,126.000000,,2013-02-17 16:01:00,
2013-02-17 09:31:00,40.0,7.0,-100.00,SW,236,7.0,10.0,25,0.00,,,0.00,126.000000,,2013-02-17 16:31:00,
2013-02-17 09:52:00,39.0,8.0,-100.00,SW,214,9.0,17.0,27,0.00,,,0.00,222.000000,,2013-02-17 16:52:00,
2013-02-17 10:02:00,39.0,8.0,-100.00,SW,214,9.0,17.0,27,0.00,,,0.00,222.000000,,2013-02-17 17:02:00,
2013-02-17 10:11:00,39.0,8.0,-100.00,SW,214,9.0,17.0,27,0.00,,,0.00,222.000000,,2013-02-17 17:11:00,
2013-02-17 10:21:00,39.0,8.0,-100.00,SW,214,9.0,17.0,27,0.00,,,0.00,222.000000,,2013-02-17 17:21:00,
2013-02-17 10:31:00,39.0,8.0,-100.00,SW,214,9.0,17.0,27,0.00,,,0.00,222.000000,,2013-02-17 17:31:00,
2013-02-17 11:01:00,44.0,10.0,-100.00,SW,219,8.0,15.0,24,0.00,,,0.00,365.000000,,2013-02-17 18:01:00,
2013-02-17 11:11:00,44.0,10.0,-100.00,SW,219,8.0,15.0,24,0.00,,,0.00,365.000000,,2013-02-17 18:11:00,
2013-02-17 11:21:00,44.0,10.0,-100.00,SW,219,8.0,15.0,24,0.00,,,0.00,365.000000,,2013-02-17 18:21:00,
2013-02-17 11:33:00,44.0,10.0,-100.00,SW,219,8.0,15.0,24,0.00,,,0.00,365.000000,,2013-02-17 18:33:00,
2013-02-17 12:01:00,46.0,8.0,-100.00,WSW,237,14.0,23.0,21,0.00,,,0.00,635.000000,,2013-02-17 19:01:00,
2013-02-17 12:11:00,46.0,8.0,-100.00,WSW,237,14.0,23.0,21,0.00,,,0.00,635.000000,,2013-02-17 19:11:00,
2013-02-17 12:21:00,46.0,8.0,-100.00,WSW,237,14.0,23.0,21,0.00,,,0.00,635.000000,,2013-02-17 19:21:00,
2013-02-17 12:32:00,46.0,8.0,-100.00,WSW,237,14.0,23.0,21,0.00,,,0.00,635.000000,,2013-02-17 19:32:00,
2013-02-17 13:01:00,47.0,8.0,-100.00,WSW,252,12.0,22.0,20,0.00,,,0.00,766.000000,,2013-02-17 20:01:00,
2013-02-17 13:11:00,47.0,8.0,-100.00,WSW,252,12.0,22.0,20,0.00,,,0.00,766.000000,,2013-02-17 20:11:00,
2013-02-17 13:21:00,47.0,8.0,-100.00,WSW,252,12.0,22.0,20,0.00,,,0.00,766.000000,,2013-02-17 20:21:00,
2013-02-17 13:31:00,47.0,8.0,-100.00,WSW,252,12.0,22.0,20,0.00,,,0.00,766.000000,,2013-02-17 20:31:00,
2013-02-17 14:01:00,48.0,9.0,-100.00,WSW,252,11.0,21.0,20,0.00,,,0.00,791.000000,,2013-02-17 21:01:00,
2013-02-17 14:11:00,48.0,9.0,-100.00,WSW,252,11.0,21.0,20,0.00,,,0.00,791.000000,,2013-02-17 21:11:00,
2013-02-17 14:21:00,48.0,9.0,-100.00,WSW,252,11.0,21.0,20,0.00,,,0.00,791.000000,,2013-02-17 21:21:00,
2013-02-17 14:31:00,48.0,9.0,-100.00,WSW,252,11.0,21.0,20,0.00,,,0.00,791.000000,,2013-02-17 21:31:00,
2013-02-17 15:01:00,48.0,7.0,-100.00,WSW,244,14.0,25.0,18,0.00,,,0.00,750.000000,,2013-02-17 22:01:00,
2013-02-17 15:12:00,48.0,7.0,-100.00,WSW,244,14.0,25.0,18,0.00,,,0.00,750.000000,,2013-02-17 22:12:00,
2013-02-17 15:21:00,48.0,7.0,-100.00,WSW,244,14.0,25.0,18,0.00,,,0.00,750.000000,,2013-02-17 22:21:00,
2013-02-17 15:32:00,48.0,7.0,-100.00,WSW,244,14.0,25.0,18,0.00,,,0.00,750.000000,,2013-02-17 22:32:00,
2013-02-17 16:02:00,48.0,5.0,-100.00,West,275,11.0,23.0,17,0.00,,,0.00,638.000000,,2013-02-17 23:02:00,
2013-02-17 16:11:00,48.0,5.0,-100.00,West,275,11.0,23.0,17,0.00,,,0.00,638.000000,,2013-02-17 23:11:00,
2013-02-17 16:21:00,48.0,5.0,-100.00,West,275,11.0,23.0,17,0.00,,,0.00,638.000000,,2013-02-17 23:21:00,
2013-02-17 16:31:00,48.0,5.0,-100.00,West,275,11.0,23.0,17,0.00,,,0.00,638.000000,,2013-02-17 23:31:00,
2013-02-17 17:01:00,48.0,8.0,-100.00,West,261,10.0,19.0,19,0.00,,,0.00,467.000000,,2013-02-18 00:01:00,
2013-02-17 17:11:00,48.0,8.0,-100.00,West,261,10.0,19.0,19,0.00,,,0.00,467.000000,,2013-02-18 00:11:00,
2013-02-17 17:22:00,48.0,8.0,-100.00,West,261,10.0,19.0,19,0.00,,,0.00,467.000000,,2013-02-18 00:22:00,
2013-02-17 17:31:00,48.0,8.0,-100.00,West,261,10.0,19.0,19,0.00,,,0.00,467.000000,,2013-02-18 00:31:00,
2013-02-17 18:01:00,44.0,7.0,-100.00,West,262,9.0,20.0,21,0.00,,,0.00,254.000000,,2013-02-18 01:01:00,
2013-02-17 18:11:00,44.0,7.0,-100.00,West,262,9.0,20.0,21,0.00,,,0.00,254.000000,,2013-02-18 01:11:00,
2013-02-17 18:21:00,44.0,7.0,-100.00,West,262,9.0,20.0,21,0.00,,,0.00,254.000000,,2013-02-18 01:21:00,
2013-02-17 18:31:00,44.0,7.0,-100.00,West,262,9.0,20.0,21,0.00,,,0.00,254.000000,,2013-02-18 01:31:00,
2013-02-17 19:01:00,38.0,8.0,-100.00,West,263,8.0,17.0,28,0.00,,,0.00,15.000000,,2013-02-18 02:01:00,
2013-02-17 19:11:00,38.0,8.0,-100.00,West,263,8.0,17.0,28,0.00,,,0.00,15.000000,,2013-02-18 02:11:00,
2013-02-17 19:21:00,38.0,8.0,-100.00,West,263,8.0,17.0,28,0.00,,,0.00,15.000000,,2013-02-18 02:21:00,
2013-02-17 19:31:00,38.0,8.0,-100.00,West,263,8.0,17.0,28,0.00,,,0.00,15.000000,,2013-02-18 02:31:00,
2013-02-17 20:01:00,36.0,8.0,-100.00,West,271,6.0,14.0,30,0.00,,,0.00,1.000000,,2013-02-18 03:01:00,
2013-02-17 20:11:00,36.0,8.0,-100.00,West,271,6.0,14.0,30,0.00,,,0.00,1.000000,,2013-02-18 03:11:00,
2013-02-17 20:21:00,36.0,8.0,-100.00,West,271,6.0,14.0,30,0.00,,,0.00,1.000000,,2013-02-18 03:21:00,
2013-02-17 20:31:00,36.0,8.0,-100.00,West,271,6.0,14.0,30,0.00,,,0.00,1.000000,,2013-02-18 03:31:00,
2013-02-17 21:01:00,36.0,8.0,-100.00,West,270,9.0,16.0,31,0.00,,,0.00,1.000000,,2013-02-18 04:01:00,
2013-02-17 21:11:00,36.0,8.0,-100.00,West,270,9.0,16.0,31,0.00,,,0.00,1.000000,,2013-02-18 04:11:00,
2013-02-17 21:21:00,36.0,8.0,-100.00,West,270,9.0,16.0,31,0.00,,,0.00,1.000000,,2013-02-18 04:21:00,
2013-02-17 21:32:00,36.0,8.0,-100.00,West,270,9.0,16.0,31,0.00,,,0.00,1.000000,,2013-02-18 04:32:00,
2013-02-17 22:01:00,34.0,10.0,-100.00,WNW,285,5.0,13.0,36,0.00,,,0.00,1.000000,,2013-02-18 05:01:00,
2013-02-17 22:11:00,34.0,10.0,-100.00,WNW,285,5.0,13.0,36,0.00,,,0.00,1.000000,,2013-02-18 05:11:00,
2013-02-17 22:21:00,34.0,10.0,-100.00,WNW,285,5.0,13.0,36,0.00,,,0.00,1.000000,,2013-02-18 05:21:00,
2013-02-17 22:31:00,34.0,10.0,-100.00,WNW,285,5.0,13.0,36,0.00,,,0.00,1.000000,,2013-02-18 05:31:00,
2013-02-17 23:02:00,33.0,12.0,-100.00,WNW,294,7.0,16.0,42,0.00,,,0.00,1.000000,,2013-02-18 06:02:00,
2013-02-17 23:11:00,33.0,12.0,-100.00,WNW,294,7.0,16.0,42,0.00,,,0.00,1.000000,,2013-02-18 06:11:00,
2013-02-17 23:21:00,33.0,12.0,-100.00,WNW,294,7.0,16.0,42,0.00,,,0.00,1.000000,,2013-02-18 06:21:00,
2013-02-17 23:31:00,33.0,12.0,-100.00,WNW,294,7.0,16.0,42,0.00,,,0.00,1.000000,,2013-02-18 06:31:00,